LA3HX Weather Reports


time (UTC)temp
C
wind
direction
speed
KPH
gust
KPH
rain 1hr
cm
rain 24hr
cm
rain mn
cm
humidity
%
barometer
mb
20211025051006 9 89 0.0 4.8 0.00 0.00 0.00 82 987.8
20211025050506 9 223 1.6 11.3 0.00 0.00 0.00 82 987.7
20211025050006 9 91 6.4 11.3 0.00 0.00 0.00 84 987.8
20211025045506 9 133 1.6 11.3 0.00 0.00 0.00 85 987.8
20211025045007 9 86 4.8 11.3 0.00 0.00 0.00 87 987.9
20211025044505 9 224 1.6 8.0 0.00 0.00 0.00 88 987.8
20211025044006 9 62 1.6 8.0 0.00 0.00 0.00 89 987.8
20211025043507 9 89 1.6 4.8 0.00 0.00 0.00 90 987.7
20211025043006 9 180 1.6 9.7 0.00 0.00 0.00 90 988.2
20211025042505 9 92 3.2 9.7 0.00 0.00 0.00 90 988.0
20211025042006 9 222 0.0 3.2 0.00 0.00 0.00 90 988.0
20211025041506 9 134 1.6 4.8 0.00 0.00 0.00 91 988.2
20211025041007 9 221 1.6 8.0 0.00 0.00 0.00 91 988.0
20211025040505 9 90 1.6 8.0 0.00 0.00 0.00 91 988.3
20211025040006 9 136 1.6 3.2 0.00 0.00 0.00 91 988.4
20211025035505 9 223 0.0 4.8 0.00 0.00 0.00 91 988.2
20211025035007 9 132 1.6 9.7 0.00 0.00 0.00 91 988.3
20211025034507 9 185 1.6 8.0 0.00 0.00 0.00 91 988.3
20211025034006 9 75 1.6 12.9 0.00 0.00 0.00 91 988.2
20211025033505 9 223 3.2 9.7 0.00 0.00 0.00 91 988.2
20211025033006 9 34 3.2 11.3 0.00 0.00 0.00 91 988.0
20211025032505 9 313 1.6 9.7 0.00 0.00 0.00 91 988.1
20211025032007 9 90 3.2 9.7 0.00 0.00 0.00 90 988.3
20211025031505 9 132 1.6 4.8 0.00 0.00 0.00 90 988.5
20211025031007 9 44 1.6 9.7 0.00 0.00 0.00 90 988.3
20211025030505 9 223 1.6 8.0 0.00 0.00 0.00 90 988.4
20211025030006 9 45 3.2 8.0 0.00 0.00 0.00 91 988.3
20211025025507 9 92 0.0 9.7 0.00 0.00 0.00 91 988.7
20211025025007 9 134 1.6 4.8 0.00 0.00 0.00 91 988.4
20211025024506 9 90 3.2 9.7 0.00 0.00 0.00 91 988.6
20211025024007 9 135 1.6 8.0 0.00 0.00 0.00 91 988.6
20211025023506 9 135 0.0 11.3 0.00 0.00 0.00 91 988.8
20211025023006 9 272 1.6 8.0 0.00 0.00 0.00 91 988.8
20211025022506 9 134 3.2 11.3 0.00 0.00 0.00 91 988.8
20211025022006 9 92 0.0 12.9 0.00 0.00 0.00 91 988.9
20211025021506 9 222 3.2 9.7 0.00 0.00 0.00 91 988.8
20211025021007 9 183 0.0 3.2 0.00 0.00 0.00 91 988.7
20211025020506 9 162 1.6 4.8 0.00 0.00 0.00 91 988.8
20211025020006 9 135 1.6 8.0 0.00 0.00 0.00 90 988.9
20211025015506 9 290 1.6 8.0 0.00 0.00 0.00 90 989.0
20211025015007 9 138 0.0 3.2 0.00 0.00 0.00 90 989.0
20211025014506 9 48 0.0 4.8 0.00 0.00 0.00 90 988.8
20211025014007 9 312 1.6 4.8 0.00 0.00 0.00 90 989.0
20211025013506 9 180 3.2 9.7 0.00 0.00 0.00 90 989.1
20211025013007 9 249 1.6 9.7 0.00 0.00 0.00 90 989.0
20211025012507 9 292 3.2 12.9 0.00 0.00 0.00 90 989.3
20211025012006 9 269 3.2 12.9 0.00 0.00 0.00 89 989.2
20211025011506 9 178 1.6 4.8 0.00 0.00 0.00 89 989.2
20211025011006 9 92 1.6 11.3 0.00 0.00 0.00 89 989.2
20211025010506 9 350 3.2 12.9 0.00 0.00 0.00 89 989.4
20211025010006 9 311 8.0 12.9 0.00 0.00 0.00 89 989.2
20211025005506 9 359 3.2 11.3 0.00 0.00 0.00 89 989.1
20211025005007 9 268 3.2 11.3 0.00 0.00 0.00 90 989.4
20211025004506 9 137 1.6 12.9 0.00 0.00 0.00 90 989.4
20211025004007 9 218 4.8 16.1 0.00 0.00 0.00 90 989.4
20211025003506 9 89 1.6 9.7 0.00 0.00 0.00 90 989.5
20211025003007 9 184 1.6 8.0 0.00 0.00 0.00 89 989.4
20211025002506 9 91 3.2 11.3 0.00 0.00 0.00 89 989.6
20211025002006 9 177 0.0 8.0 0.00 0.00 0.00 89 989.6
20211025001506 9 260 3.2 16.1 0.00 0.00 0.00 89 989.5
20211025001007 9 308 1.6 4.8 0.00 0.00 0.00 90 989.7
20211025000505 9 135 1.6 4.8 0.00 0.00 0.00 90 989.5
20211025000006 9 90 1.6 11.3 0.00 0.00 0.00 89 989.5
20211024235506 9 134 1.6 9.7 0.00 0.00 0.00 89 989.7
20211024235006 9 176 1.6 4.8 0.00 0.00 0.00 89 989.6
20211024234506 9 135 1.6 4.8 0.00 0.00 0.00 88 989.6
20211024234006 9 178 0.0 8.0 0.00 0.00 0.00 87 989.8
20211024233506 9 90 0.0 3.2 0.00 0.00 0.00 85 990.0
20211024233006 9 90 1.6 4.8 0.00 0.00 0.00 84 989.9
20211024232506 9 45 0.0 4.8 0.00 0.00 0.00 83 989.8
20211024232007 10 232 6.4 12.9 0.00 0.00 0.00 81 989.9
20211024231506 10 314 3.2 9.7 0.00 0.00 0.00 80 990.0
20211024231008 10 92 1.6 8.0 0.00 0.00 0.00 79 989.9
20211024230506 10 223 1.6 4.8 0.00 0.00 0.00 77 989.9
20211024230006 10 135 1.6 3.2 0.00 0.00 0.00 76 989.9
20211024225506 10 180 1.6 16.1 0.00 0.00 0.00 76 990.0
20211024225006 10 137 9.7 16.1 0.00 0.00 0.00 75 990.0
20211024224506 10 135 3.2 12.9 0.00 0.00 0.00 74 989.9
20211024224007 10 182 1.6 8.0 0.00 0.00 0.00 74 989.7
20211024223506 10 177 4.8 9.7 0.00 0.00 0.00 73 989.9
20211024223006 10 184 8.0 16.1 0.00 0.00 0.00 73 989.7
20211024222505 10 170 3.2 20.9 0.00 0.00 0.00 73 990.0
20211024222007 10 96 6.4 19.3 0.00 0.00 0.00 74 989.7
20211024221506 10 139 4.8 19.3 0.00 0.00 0.00 74 990.0
20211024221006 10 248 4.8 19.3 0.00 0.00 0.00 74 990.0
20211024220506 10 315 4.8 12.9 0.00 0.00 0.00 75 990.1
20211024220006 10 224 1.6 8.0 0.00 0.00 0.00 76 989.8
20211024215505 10 183 1.6 9.7 0.00 0.00 0.00 78 990.1
20211024215006 10 268 8.0 16.1 0.00 0.00 0.00 80 990.4
20211024214507 10 221 3.2 12.9 0.00 0.00 0.00 80 990.4
20211024214007 10 160 3.2 12.9 0.00 0.00 0.00 81 990.5
20211024213506 10 274 4.8 9.7 0.00 0.00 0.00 81 990.4
20211024213006 10 96 4.8 16.1 0.00 0.00 0.00 81 990.4
20211024212506 10 184 3.2 8.0 0.00 0.00 0.00 81 990.4
20211024212007 10 311 4.8 9.7 0.00 0.00 0.00 80 990.4
20211024211506 10 268 3.2 9.7 0.00 0.00 0.00 80 990.4
20211024211007 10 90 0.0 14.5 0.00 0.00 0.00 80 990.5
20211024210507 10 135 1.6 9.7 0.00 0.00 0.00 80 990.8
20211024210006 10 315 3.2 11.3 0.00 0.00 0.00 79 990.5
20211024205506 10 228 4.8 8.0 0.00 0.00 0.00 79 990.7
20211024205006 10 212 3.2 9.7 0.00 0.00 0.00 79 990.6
20211024204508 10 134 3.2 12.9 0.00 0.00 0.00 79 990.7
20211024204006 10 133 8.0 9.7 0.00 0.00 0.00 80 990.5
20211024203507 9 136 3.2 9.7 0.00 0.00 0.00 80 990.4
20211024203007 9 176 4.8 19.3 0.00 0.00 0.00 80 990.5
20211024202506 10 223 8.0 11.3 0.00 0.00 0.00 80 990.3
20211024202008 10 160 6.4 14.5 0.00 0.00 0.00 80 990.4
20211024201506 10 267 1.6 8.0 0.00 0.00 0.00 80 990.2
20211024201007 10 180 4.8 11.3 0.00 0.00 0.00 80 990.4
20211024200506 10 138 4.8 9.7 0.00 0.00 0.00 80 990.4
20211024200007 10 179 3.2 12.9 0.00 0.00 0.00 80 990.4
20211024195506 10 315 3.2 9.7 0.00 0.00 0.00 81 990.3
20211024195006 10 246 1.6 9.7 0.00 0.00 0.00 82 990.4
20211024194506 10 270 1.6 9.7 0.00 0.00 0.00 83 990.3
20211024194006 10 184 3.2 9.7 0.00 0.00 0.00 84 990.4
20211024193507 10 145 3.2 12.9 0.00 0.00 0.00 84 990.3
20211024193007 10 40 1.6 11.3 0.00 0.00 0.00 85 990.4
20211024192507 10 135 4.8 9.7 0.00 0.00 0.00 85 990.3
20211024192007 10 134 1.6 11.3 0.00 0.00 0.00 85 990.4
20211024191506 10 175 1.6 9.7 0.00 0.00 0.00 84 990.3
20211024191006 10 171 1.6 9.7 0.00 0.00 0.00 83 990.6
20211024190506 10 183 1.6 9.7 0.00 0.00 0.00 83 990.9
20211024190007 10 139 1.6 8.0 0.00 0.00 0.00 82 990.7
20211024185507 10 269 3.2 8.0 0.00 0.00 0.00 82 990.9
20211024185008 10 239 3.2 4.8 0.00 0.00 0.00 82 990.8
20211024184507 10 46 1.6 8.0 0.00 0.00 0.00 82 991.0
20211024184007 10 180 3.2 9.7 0.00 0.00 0.00 81 990.8
20211024183506 10 135 4.8 9.7 0.00 0.00 0.00 81 990.8
20211024183008 10 160 3.2 12.9 0.00 0.00 0.00 81 990.9
20211024182506 10 137 3.2 12.9 0.00 0.00 0.00 81 991.1
20211024182007 10 82 3.2 12.9 0.00 0.00 0.00 81 991.0
20211024181506 10 223 1.6 4.8 0.00 0.00 0.00 81 991.3
20211024181007 10 95 1.6 14.5 0.00 0.00 0.00 81 991.2
20211024180507 10 225 4.8 14.5 0.00 0.00 0.00 80 991.2
20211024180006 10 349 6.4 16.1 0.00 0.00 0.00 80 991.2
20211024175507 10 112 1.6 9.7 0.00 0.00 0.00 80 991.3
20211024175007 10 42 3.2 9.7 0.00 0.00 0.00 80 991.3
20211024174506 10 94 1.6 4.8 0.00 0.00 0.00 80 991.3
20211024174007 10 330 4.8 12.9 0.00 0.00 0.00 80 991.6
20211024173507 10 219 1.6 8.0 0.00 0.00 0.00 79 991.0
20211024173007 10 134 1.6 4.8 0.00 0.00 0.00 79 991.3
20211024172507 10 55 3.2 9.7 0.00 0.00 0.00 79 991.4
20211024172007 10 102 3.2 9.7 0.00 0.00 0.00 78 991.4
20211024171507 10 0 0.0 8.0 0.00 0.00 0.00 78 991.5
20211024171008 10 90 3.2 12.9 0.00 0.00 0.00 77 991.4
20211024170506 10 134 1.6 4.8 0.00 0.00 0.00 77 991.5
20211024170006 10 254 1.6 4.8 0.00 0.00 0.00 76 991.2
20211024165506 10 89 1.6 9.7 0.00 0.00 0.00 76 991.4
20211024165007 10 310 3.2 9.7 0.00 0.00 0.00 76 991.4
20211024164506 10 46 3.2 9.7 0.00 0.00 0.00 76 991.1
20211024164007 10 270 0.0 8.0 0.00 0.00 0.00 76 991.4
20211024163507 10 90 1.6 9.7 0.00 0.00 0.00 76 991.4
20211024163007 10 200 1.6 4.8 0.00 0.00 0.00 77 991.5
20211024162507 10 156 1.6 4.8 0.00 0.00 0.00 78 991.6
20211024162007 10 270 0.0 4.8 0.00 0.00 0.00 78 991.3
20211024161507 10 181 1.6 4.8 0.00 0.00 0.00 78 991.4
20211024161007 10 69 1.6 9.7 0.00 0.00 0.00 77 991.4
20211024160506 10 91 4.8 9.7 0.00 0.00 0.00 77 991.6
20211024160007 10 246 0.0 8.0 0.00 0.00 0.00 76 991.6
20211024155506 10 265 1.6 11.3 0.00 0.00 0.00 76 991.7
20211024155007 10 224 3.2 11.3 0.00 0.00 0.00 75 991.6
20211024154506 10 132 1.6 9.7 0.00 0.00 0.00 74 991.7
20211024154007 10 185 6.4 11.3 0.00 0.00 0.00 73 991.8
20211024153506 10 219 3.2 11.3 0.00 0.00 0.00 73 991.6
20211024153007 10 315 3.2 14.5 0.00 0.00 0.00 74 991.6
20211024152506 10 135 1.6 4.8 0.00 0.00 0.00 74 991.9
20211024152007 10 178 1.6 4.8 0.00 0.00 0.00 74 991.7
20211024151507 10 335 1.6 8.0 0.00 0.00 0.00 74 991.7
20211024151006 10 96 1.6 4.8 0.00 0.00 0.00 73 991.9
20211024150506 10 147 3.2 14.5 0.00 0.00 0.00 73 991.9
20211024150006 10 96 3.2 8.0 0.00 0.00 0.00 73 991.7
20211024145507 10 318 1.6 8.0 0.00 0.00 0.00 73 991.6
20211024145008 10 95 1.6 4.8 0.00 0.00 0.00 73 991.9
20211024144506 10 313 3.2 9.7 0.00 0.00 0.00 73 991.8
20211024144007 10 129 3.2 9.7 0.00 0.00 0.00 74 991.9
20211024143506 10 273 1.6 9.7 0.00 0.00 0.00 75 992.0
20211024143007 10 181 3.2 11.3 0.00 0.00 0.00 75 992.0
20211024142506 10 183 1.6 9.7 0.00 0.00 0.00 76 992.1
20211024142007 10 226 1.6 9.7 0.00 0.00 0.00 76 992.0
20211024141506 10 156 3.2 14.5 0.00 0.00 0.00 77 992.0
20211024141008 10 272 3.2 11.3 0.00 0.00 0.00 78 991.9
20211024140506 10 240 3.2 12.9 0.00 0.00 0.00 78 992.1
20211024140008 10 221 1.6 4.8 0.00 0.00 0.00 79 992.1
20211024135506 10 135 1.6 8.0 0.00 0.00 0.00 78 992.2
20211024135008 10 183 0.0 1.6 0.00 0.00 0.00 78 992.4
20211024134507 10 132 1.6 9.7 0.00 0.00 0.00 78 992.6
20211024134007 10 135 4.8 9.7 0.00 0.00 0.00 77 992.4
20211024133506 10 160 1.6 4.8 0.00 0.00 0.00 77 992.5
20211024133007 10 224 1.6 8.0 0.00 0.00 0.00 76 992.7
20211024132507 10 157 1.6 8.0 0.00 0.00 0.00 76 992.8
20211024132007 10 357 3.2 8.0 0.00 0.00 0.00 76 992.9
20211024131506 10 179 4.8 8.0 0.00 0.00 0.00 75 992.9
20211024131008 10 52 1.6 9.7 0.00 0.00 0.00 74 993.0
20211024130507 10 270 1.6 9.7 0.00 0.00 0.00 73 993.1
20211024130007 10 270 1.6 9.7 0.00 0.00 0.00 73 992.9
20211024125506 10 92 4.8 9.7 0.00 0.00 0.00 73 993.1
20211024125007 10 137 1.6 4.8 0.00 0.00 0.00 73 993.2
20211024124507 10 266 1.6 9.7 0.00 0.00 0.00 73 993.2
20211024124007 10 178 0.0 3.2 0.00 0.00 0.00 73 993.4
20211024123507 10 137 0.0 3.2 0.00 0.00 0.00 73 993.4
20211024123007 10 183 0.0 12.9 0.00 0.00 0.00 73 993.5
20211024122507 10 77 3.2 11.3 0.00 0.00 0.00 73 993.6
20211024122007 10 45 1.6 9.7 0.00 0.00 0.00 72 993.5
20211024121508 10 292 3.2 12.9 0.00 0.00 0.00 72 993.7
20211024121007 10 180 3.2 8.0 0.00 0.00 0.00 72 993.7
20211024120506 10 315 1.6 8.0 0.00 0.00 0.00 72 993.7
20211024120007 10 201 1.6 8.0 0.00 0.00 0.00 72 993.9
20211024115507 10 272 3.2 8.0 0.00 0.00 0.00 72 993.9
20211024115008 10 135 1.6 8.0 0.00 0.00 0.00 72 993.7
20211024114506 10 43 1.6 8.0 0.00 0.00 0.00 72 993.8
20211024114007 10 137 3.2 12.9 0.00 0.00 0.00 73 993.7
20211024113507 10 180 3.2 8.0 0.00 0.00 0.00 73 993.9
20211024113006 10 268 1.6 8.0 0.00 0.00 0.00 72 993.7
20211024112506 10 229 4.8 9.7 0.00 0.00 0.00 72 993.7
20211024112007 10 87 1.6 12.9 0.00 0.00 0.00 72 993.7
20211024111506 10 181 3.2 12.9 0.00 0.00 0.00 72 993.7
20211024111008 10 40 3.2 11.3 0.00 0.00 0.00 73 993.8
20211024110507 10 92 4.8 11.3 0.00 0.00 0.00 73 993.8
20211024110006 10 226 3.2 8.0 0.00 0.00 0.00 74 993.9
20211024105507 10 270 3.2 9.7 0.00 0.00 0.00 74 994.1
20211024105007 10 137 0.0 12.9 0.00 0.00 0.00 74 994.2
20211024104508 10 269 3.2 8.0 0.00 0.00 0.00 74 993.9
20211024104007 10 71 1.6 9.7 0.00 0.00 0.00 74 993.9
20211024103507 10 93 1.6 12.9 0.00 0.00 0.00 74 993.9
20211024103008 10 265 1.6 4.8 0.00 0.00 0.00 75 993.9
20211024102506 10 86 4.8 9.7 0.00 0.00 0.00 75 994.1
20211024102008 9 221 1.6 12.9 0.00 0.00 0.00 75 994.2
20211024101506 9 136 1.6 4.8 0.00 0.00 0.00 75 994.0
20211024101007 9 49 1.6 8.0 0.00 0.00 0.00 75 994.1
20211024100507 9 129 3.2 11.3 0.00 0.00 0.00 76 994.2
20211024100007 9 269 3.2 8.0 0.00 0.00 0.00 77 994.1
20211024095507 9 88 1.6 4.8 0.00 0.00 0.00 77 994.1
20211024095007 9 41 1.6 3.2 0.00 0.00 0.00 79 994.1
20211024094507 9 115 1.6 9.7 0.00 0.00 0.00 80 993.7
20211024094007 9 61 3.2 16.1 0.00 0.00 0.00 80 994.2
20211024093508 9 314 1.6 11.3 0.00 0.00 0.00 82 994.0
20211024093008 9 269 3.2 8.0 0.00 0.00 0.00 82 994.0
20211024092506 9 313 1.6 11.3 0.00 0.00 0.00 82 994.1
20211024092007 9 317 0.0 9.7 0.00 0.00 0.00 83 994.1
20211024091506 8 93 0.0 1.6 0.00 0.00 0.00 83 994.0
20211024091007 8 45 0.0 0.0 0.00 0.00 0.00 84 994.2
20211024090508 8 43 0.0 3.2 0.00 0.00 0.00 84 994.1
20211024090008 8 228 0.0 4.8 0.00 0.00 0.00 84 994.3
20211024085507 8 90 0.0 4.8 0.00 0.00 0.00 85 994.3
20211024085006 8 180 1.6 4.8 0.00 0.00 0.00 85 994.3
20211024084506 8 135 1.6 4.8 0.00 0.00 0.00 85 994.4
20211024084005 8 293 0.0 1.6 0.00 0.00 0.00 86 994.3
20211024083505 8 269 0.0 1.6 0.00 0.00 0.00 87 994.3
20211024083005 8 357 0.0 8.0 0.00 0.00 0.00 88 994.3
20211024082506 8 135 3.2 8.0 0.00 0.00 0.00 89 994.2
20211024082006 8 90 1.6 9.7 0.00 0.00 0.00 90 994.2
20211024081506 8 225 1.6 4.8 0.00 0.00 0.00 90 994.4
20211024081007 7 83 1.6 4.8 0.00 0.00 0.00 90 994.3
20211024080505 7 312 0.0 8.0 0.00 0.00 0.00 90 994.3
20211024080005 7 216 1.6 8.0 0.00 0.00 0.00 90 994.2
20211024075506 7 138 1.6 4.8 0.00 0.00 0.00 90 994.2
20211024075007 7 226 1.6 3.2 0.00 0.00 0.00 90 994.3
20211024074506 7 91 0.0 1.6 0.00 0.00 0.00 90 994.2
20211024074006 7 133 0.0 3.2 0.00 0.00 0.00 90 994.2
20211024073506 7 3 0.0 8.0 0.00 0.00 0.00 90 994.2
20211024073007 7 135 3.2 11.3 0.00 0.00 0.00 89 994.3
20211024072505 7 267 1.6 4.8 0.00 0.00 0.00 89 994.2
20211024072006 7 222 0.0 8.0 0.00 0.00 0.00 89 994.3
20211024071506 7 137 1.6 12.9 0.00 0.00 0.00 90 994.6
20211024071006 7 136 1.6 11.3 0.00 0.00 0.00 93 994.4
20211024070506 7 270 3.2 9.7 0.00 0.00 0.00 93 994.1
20211024070006 7 201 0.0 1.6 0.00 0.00 0.00 94 994.4
20211024065506 7 90 0.0 0.0 0.00 0.00 0.00 94 994.4
20211024065006 7 159 0.0 4.8 0.00 0.00 0.00 94 994.5
20211024064506 7 317 1.6 4.8 0.00 0.00 0.00 94 994.6
20211024064006 7 180 1.6 11.3 0.00 0.00 0.00 94 994.4
20211024063505 7 269 3.2 11.3 0.00 0.00 0.00 93 994.4
20211024063007 7 90 0.0 4.8 0.00 0.00 0.00 93 994.2
20211024062506 7 115 0.0 9.7 0.00 0.00 0.00 93 994.2
20211024062006 7 312 1.6 9.7 0.00 0.00 0.00 93 994.3
20211024061506 7 135 0.0 1.6 0.00 0.00 0.00 93 994.2
20211024061007 7 180 0.0 0.0 0.00 0.00 0.00 92 994.2
20211024060506 7 180 0.0 1.6 0.00 0.00 0.00 92 994.1
20211024060006 7 90 0.0 4.8 0.00 0.00 0.00 92 994.2
20211024055506 6 135 0.0 0.0 0.00 0.00 0.00 92 994.3
20211024055007 6 135 0.0 0.0 0.00 0.00 0.00 92 994.4
20211024054506 6 182 0.0 4.8 0.00 0.00 0.00 91 994.5
20211024054007 6 90 0.0 1.6 0.00 0.00 0.00 91 994.7
20211024053506 6 138 0.0 1.6 0.00 0.00 0.00 91 994.7
20211024053006 6 357 0.0 1.6 0.00 0.00 0.00 91 994.5
20211024052506 6 133 0.0 4.8 0.00 0.00 0.00 91 994.5
20211024052006 6 222 0.0 9.7 0.00 0.00 0.00 91 994.5
20211024051507 6 133 1.6 3.2 0.00 0.00 0.00 91 994.6